Home > Weather > Ilanz > Past weeks

Flag for Switzerland Past Weather in Ilanz, Graubünden, Switzerland — Yesterday and Last 2 Weeks

Now
64 °F

Low clouds.


Feels Like: 64 °F
Forecast: 53 / 68 °F
Wind: 2 mph from West

Location: Chur

Current Time: Jul 31, 2016 at 11:44:24 AM

Latest Report: Jul 31, 2016 at 11:00 AM


Visibility: 13 mi

Pressure: 29.95 "Hg (27.58 "Hg at 703m altitude)

Humidity: 91%

Dew Point: 62 °F

Location of IlanzLocation

Past Weather in Ilanz — Graph

°F

Ilanz Temperature Yesterday

Maximum temperature yesterday: 85 °F (at 3:00 PM)
Minimum temperature yesterday: 61 °F (at 5:00 AM)
Average temperature yesterday: 71 °F

High & Low Weather Summary for the Past Weeks

 TemperatureHumidityPressure
High89 °F (Jul 20, 4:00 PM)98% (Jul 28, 3:00 AM)30.33 "Hg (Jul 28, 3:00 AM)
Low49 °F (Jul 17, 5:00 AM)33% (Jul 20, 3:00 PM)29.81 "Hg (Jul 30, 5:00 PM)
Average69 °F71%30.05 "Hg
* Reported Jul 16 10:00 AM — Jul 31 10:00 AM, Ilanz, Weather by CustomWeather, © 2016

Note: Actual official high and low records may vary slightly from our data, if they occured in-between our weather recording intervals... More about our weather records

Advertising

Ilanz Weather History for the Previous 24 Hours

Scroll right to see more
 ConditionsComfort  
Time TempWeatherWind HumidityBarometerVisibility
10:00 AM
Sun, Jul 31
63 °FMild.2 mph92%29.98 "HgN/A
9:00 AM62 °FCool.2 mph94%29.98 "HgN/A
8:00 AM62 °FLow clouds.2 mph89%29.97 "Hg8 mi
7:00 AM62 °FCool.6 mph87%29.96 "HgN/A
6:00 AM63 °FMild.3 mph78%29.93 "HgN/A
5:00 AM63 °FMild.2 mph82%29.95 "Hg10 mi
4:00 AM65 °FMild.6 mph73%29.96 "HgN/A
3:00 AM65 °FMild.12 mph72%29.96 "HgN/A
2:00 AM65 °FMild.10 mph74%29.97 "Hg10 mi
1:00 AM65 °FMild.8 mph71%29.99 "HgN/A
12:00 AM65 °FMild.5 mph76%29.99 "HgN/A
11:00 PM
Sat, Jul 30
65 °FPassing clouds.3 mph83%30.01 "Hg11 mi
10:00 PM66 °FMild.3 mph79%30.01 "HgN/A
9:00 PM67 °FMild.3 mph80%30.01 "HgN/A
8:00 PM68 °FOvercast.8 mph83%30.00 "Hg7 mi
7:00 PM68 °FMild.8 mph82%30.00 "HgN/A
6:00 PM72 °FMild.25 mph60%29.93 "HgN/A
5:00 PM83 °FScattered clouds.13 mph47%29.81 "Hg19 mi
4:00 PM83 °FWarm.15 mph47%29.83 "HgN/A
3:00 PM85 °FWarm.14 mph43%29.83 "HgN/A
2:00 PM85 °FWarm.12 mph41%29.83 "HgN/A
1:00 PM83 °FWarm.5 mph44%29.85 "HgN/A
12:00 PM79 °FWarm.1 mph50%29.89 "HgN/A
11:00 AM77 °FHaze.3 mph54%29.92 "Hg9 mi
Weather by CustomWeather, © 2016

See weather overviewHow to use our weather pages